OpenBCM V1.13 (Linux)

Packet Radio Mailbox

DB0FHN

[JN59NK Nuernberg]

 Login: GUEST





  
LU9DCE > KEP      19.07.19 20:04l 246 Lines 12105 Bytes #999 (0) @ WW
BID : 28747_LU9DCE
Read: DF7EAV DJ6UX GUEST
Subj: TLE 19 07
Path: DB0FHN<DB0BLO<DB0ERF<DB0RES<DB0OVN<DB0GOS<ON0AR<VE2PKT<N3HYM<LU9DCE
Sent: 190719/1800Z 28747@LU9DCE.TOR.BA.ARG.SOAM LinBPQ6.0.18

            __    _  _  ___  ____   ___  ____    ____  ____  ____
           (  )  / )( \/ _ \(    \ / __)(  __)  (  _ \(  _ \/ ___)
           / (_/\) \/ (\__  )) D (( (__  ) _)    ) _ ( ) _ (\___ \
           \____/\____/(___/(____/ \___)(____)  (____/(____/(____/
               ESTACION DE PACKET RADIO - BUENOS AIRES (GF05OM)
                   BOLETINES INFORMATIVOS PROGRAMADOS (BIP)
                  SLACKWARE LINUX - HELLOCODELINUX@GMAIL.COM

+----------------------------------------------------------------------------+
OSCAR 7
1  7530U 74089B   19199.86018170 -.00000043  00000-0  10390-4 0  9998
2  7530 101.7456 167.2143 0011780 290.3883  83.8751 12.53638884 44306
OSCAR 11 (UoSAT 2)
1 14781U 84021B   19199.85842346 +.00000038 +00000-0 +10721-4 0  9991
2 14781 097.6091 223.1480 0007580 211.8102 148.2656 14.83095885882236
OSCAR 19 (LUSAT)
1 20442U 90005G   19199.90427343 -.00000005  00000-0  14273-4 0  9994
2 20442  98.6496 141.8558 0012862  62.8992 297.3503 14.32929024540704
EYESAT A
1 22825U 93061C   19199.93538796 -.00000026 +00000-0 +78400-5 0  9990
2 22825 098.9042 189.2643 0007286 271.6206 088.4141 14.30062467346005
ITAMSAT
1 22826U 93061D   19199.79011034 -.00000017  00000-0  11275-4 0  9992
2 22826  98.8982 189.1033 0007805 259.1869 100.8434 14.30396220346453
RADIO ROSTO
1 23439U 94085A   19199.84823684 -.00000014 +00000-0 +80006-3 0  9992
2 23439 064.8179 067.3589 0146176 107.3240 254.3732 11.27568477011295
JAS 2
1 24278U 96046B   19199.64575042 -.00000041 +00000-0 -74956-5 0  9993
2 24278 098.5413 348.9969 0350740 162.1859 199.1947 13.53092521131606
TECHSAT 1B
1 25397U 98043D   19199.91056973 -.00000017 +00000-0 +11627-4 0  9999
2 25397 098.6896 139.6904 0000904 011.3768 348.7431 14.23667802091958
ISS (ZARYA)
1 25544U 98067A   19200.70103009  .00001465  00000-0  32623-4 0  9998
2 25544  51.6423 199.9577 0006946 157.7462 179.3259 15.50991685180292
PCSAT
1 26931U 01043C   19199.63371343 -.00000041  00000-0  16149-4 0  9999
2 26931  67.0518 286.4156 0007150 277.1382  82.8906 14.30547115929256
SAUDISAT 1C
1 27607U 02058C   19199.77418587 -.00000052 +00000-0 +13646-4 0  9995
2 27607 064.5559 317.6226 0080300 250.7420 108.4983 14.75559037891340
CUTE-1
1 27844U 03031E   19199.83489077  .00000019  00000-0  28238-4 0  9994
2 27844  98.6833 207.5971 0008837 309.0512  50.9878 14.22185627832571
CUBESAT XI 4
1 27848U 03031J   19199.97636333  .00000017  00000-0  27571-4 0  9999
2 27848  98.6910 208.2431 0008926 321.1607  38.8928 14.21780052832448
MOZHAYETS 4
1 27939U 03042A   19200.54109472  .00000057  00000-0  18770-4 0  9992
2 27939  98.0451 335.7616 0012296 334.6202  25.4397 14.66791025845064
CUBESAT XI 5
1 28895U 05043F   19199.86119861 +.00000064 +00000-0 +21113-4 0  9995
2 28895 097.9633 341.5647 0015456 254.9904 104.9588 14.63675594731663
CUTE-1.7+APD II
1 32785U 08021C   19199.80529811 +.00000113 +00000-0 +17757-4 0  9995
2 32785 097.5497 198.1000 0013619 156.6563 203.5276 14.88321414608093
DELFI C3
1 32789U 08021G   19200.09560955  .00000882  00000-0  62850-4 0  9994
2 32789  97.4621 248.8407 0012824  28.9439 331.2497 15.07003204611543
SEEDS
1 32791U 08021J   19199.84020511 +.00000216 +00000-0 +27256-4 0  9998
2 32791 097.5276 204.1375 0014512 132.8347 227.4094 14.90836265608526
YUBELEINY
1 32953U 08025A   19200.46994631  .00000021  00000-0  75656-4 0  9997
2 32953  82.5023 125.6273 0020400  62.0815 298.2326 12.43090715506137
PRISM (HITOMI)
1 33493U 09002B   19200.21570408  .00000298  00000-0  31650-4 0  9990
2 33493  98.1218 122.3289 0016843  82.1418 278.1713 14.96681590569712
KKS-1 (KISEKI)
1 33499U 09002H   19200.19233666  .00000038  00000-0  13592-4 0  9992
2 33499  98.3486  39.8696 0010443 107.0682 253.1671 14.75448860563720
SWISSCUBE
1 35932U 09051B   19199.89709280 +.00000078 +00000-0 +28657-4 0  9996
2 35932 098.5906 006.7576 0008839 076.1273 284.0907 14.56293109521138
BEESAT
1 35933U 09051C   19200.03563099  .00000053  00000-0  22972-4 0  9999
2 35933  98.5931   8.6723 0007083  87.2922 272.9085 14.56381210521309
ITUPSAT 1
1 35935U 09051E   19199.90458238 +.00000047 +00000-0 +21983-4 0  9996
2 35935 098.6042 008.7732 0009385 084.9066 275.3201 14.55540133521000
XIWANG-1 (HOPE-1)
1 36122U 09072B   19199.75756892 -.00000036  00000-0  15997-4 0  9995
2 36122 100.0716 200.7225 0007002 276.9885  83.0409 13.16350191460838
TISAT 1
1 36799U 10035E   19199.87955730 +.00000062 +00000-0 +12367-4 0  9997
2 36799 098.1594 353.0385 0011967 353.8341 006.2727 14.91119057489069
JUGNU
1 37839U 11058B   19200.26722292  .00000291  00000-0  13319-4 0  9992
2 37839  19.9604 149.3611 0018711 304.3716 206.6446 14.12654236401588
SRMSAT
1 37841U 11058D   19200.35588066  .00000271  00000-0  35135-5 0  9993
2 37841  19.9705 206.2367 0011817 172.4931 316.3225 14.10635172401026
M-CUBED/EXP-1 PRIME
1 37855U 11061F   19200.37133907  .00000947  00000-0  55285-4 0  9991
2 37855 101.7116 111.7158 0173503 345.9491  13.6926 15.05484535421391
HORYU 2
1 38340U 12025D   19200.08734118  .00000092  00000-0  21481-4 0  9993
2 38340  98.3269 239.5870 0012145  33.6748 326.5229 14.75729158385649
STRAND 1
1 39090U 13009E   19200.18501224  .00000017  00000-0  21228-4 0  9996
2 39090  98.4860  45.6280 0008790 190.9372 169.1623 14.35090476334768
SOMP
1 39134U 13015E   19199.62168407  .00000454  00000-0  30155-4 0  9994
2 39134  64.8635 283.4678 0032366 298.5861  61.2011 15.20202001345142
BEESAT 3
1 39135U 13015F   19200.45366752  .00000400  00000-0  29679-4 0  9992
2 39135  64.8701 299.5026 0025404 315.6566  44.2525 15.17507820344918
BEESAT 2
1 39136U 13015G   19200.50226535  .00000287  00000-0  24459-4 0  9997
2 39136  64.8711 303.2598 0020738 299.2179  60.6872 15.16935972344840
CUBEBUG 1
1 39153U 13018D   19200.51330343  .00000080  00000-0  17409-4 0  9991
2 39153  97.9799 298.4667 0018427  98.4617 261.8684 14.80575422336388
ZACUBE
1 39417U 13066B   19200.03842814  .00000106  00000-0  19855-4 0  9991
2 39417  97.5616 211.8343 0057475 295.2261  64.3001 14.81125472305532
TRITON 1
1 39427U 13066M   19199.92688075 +.00000154 +00000-0 +32270-4 0  9993
2 39427 097.6778 175.4386 0115321 068.9321 292.4171 14.67851898302588
GOMX 1
1 39430U 13066Q   19200.54758827  .00000088  00000-0  24660-4 0  9991
2 39430  97.7494 155.0719 0151423 156.4934 204.3269 14.59261349301102
HUMSAT D
1 39433U 13066T   19200.12464338  .00000194  00000-0  24240-4 0  9991
2 39433  97.5515 246.3843 0030356 196.2128 163.8124 14.92208494307617
CUBEBUG 2
1 39440U 13066AA  19199.92140273 +.00000114 +00000-0 +22953-4 0  9994
2 39440 097.6025 196.5738 0079950 347.9411 011.9883 14.75863602303232
FUNCUBE 1
1 39444U 13066AE  19200.02223438  .00000154  00000-0  25473-4 0  9991
2 39444  97.5596 213.7942 0056518 288.8680  70.6411 14.81946055304425
UWE-3
1 39446U 13066AG  19200.48285899  .00000110  00000-0  21408-4 0  9998
2 39446  97.5810 204.1591 0069003 320.6579  38.9631 14.78398185303819
SPROUT
1 39770U 14029E   19200.51069004  .00000246  00000-0  33379-4 0  9990
2 39770  97.8860 303.6052 0008909 353.8073   6.3032 14.87363039279411
UNISAT 6
1 40012U 14033C   19200.15590921  .00000101  00000-0  22463-4 0  9995
2 40012  97.7538  65.4492 0058455   1.1177 359.0152 14.73986381273177
DUCHIFAT 1
1 40021U 14033M   19199.75106681  .00000254  00000-0  31830-4 0  9991
2 40021  97.9234 124.4445 0011935 316.7164  43.3115 14.90643678276026
QB50P1
1 40025U 14033R   19199.73984114  .00000150  00000-0  21965-4 0  9991
2 40025  97.9051 119.3758 0011668 326.9201  33.1285 14.88954034275791
CHUBUSAT 1
1 40300U 14070C   19200.28664780  .00000301  00000-0  16128-4 0  9998
2 40300  97.3253 273.6925 0019584 311.7543  88.5720 15.22108352260673
NUDT-PHONESAT
1 40900U 15049B   19200.39850407  .00001320  00000-0  59285-4 0  9999
2 40900  97.4359 209.4306 0014556  78.2270  29.2902 15.22854756212333
ZDPS 2A
1 40901U 15049C   19200.47746416  .00000647  00000-0  35303-4 0  9999
2 40901  97.4589 205.8540 0015111  94.8232  59.6591 15.17753255211908
ZDPS 2B
1 40902U 15049D   19200.50594407  .00000542  00000-0  30291-4 0  9990
2 40902  97.4535 203.3642 0015137  92.6324  59.1867 15.17576371211882
XW-2A
1 40903U 15049E   19200.47845299  .00001256  00000-0  31484-4 0  9993
2 40903  97.3357 243.4131 0014694  39.4215  67.6464 15.41921555214994
KAITUO 1A
1 40904U 15049F   19200.51627804  .00000028  00000-0  49545-5 0  9993
2 40904  97.4664 201.9955 0016134  99.8741  57.3540 15.15376061211664
OBJECT G
1 40905U 15049G   19200.48511030  .00000379  00000-0  24204-4 0  9996
2 40905  97.4703 199.4877 0017200  94.9869  55.9097 15.14304779211538
XW-2C
1 40906U 15049H   19200.36991837  .00000148  00000-0  11240-4 0  9991
2 40906  97.4671 201.9386 0016382  92.5931  15.4727 15.15691319211644
XW-2D
1 40907U 15049J   19200.40948311  .00000528  00000-0  31002-4 0  9996
2 40907  97.4645 201.6559 0015805  89.6563  16.9988 15.15883216211668
LILACSAT 2
1 40908U 15049K   19200.47396823  .00000521  00000-0  32382-4 0  9994
2 40908  97.4783 200.5363 0017413  95.2999  56.9259 15.13815414211462
XW-2F
1 40910U 15049M   19200.53899295  .00000766  00000-0  41693-4 0  9991
2 40910  97.4617 203.8129 0016532  82.8968  16.6901 15.17326051211696
XW-2B
1 40911U 15049N   19200.45449174  .00000191  00000-0  13467-4 0  9990
2 40911  97.4671 202.3542 0015660  90.6913  75.5849 15.15811111211563
KAITUO 1B
1 40912U 15049P   19200.39286253  .00000721  00000-0  36952-4 0  9994
2 40912  97.4486 207.3464 0016609  66.7170  40.7640 15.19640450211977
TIANWANG 1C (TW-1C)
1 40926U 15051B   19200.38598471  .00007334  00000-0  10607-3 0  9994
2 40926  97.1335 246.5265 0006136 251.1610 165.0965 15.56197434214939
